W2CS Weather Reports


time (UTC)temp
C
wind
direction
speed
KPH
gust
KPH
rain 1hr
cm
rain 24hr
cm
rain mn
cm
humidity
%
barometer
mb
20260502164038 13 185 0.0 1.6 0.00 0.00 0.00 81 1012.0
20260502163538 13 0 0.0 4.8 0.00 0.00 0.00 83 1012.0
20260502163106 12 0 0.0 4.8 0.00 0.00 0.00 82 1012.2
20260502162536 12 185 0.0 3.2 0.00 0.00 0.00 82 1012.0
20260502162040 12 0 0.0 3.2 0.00 0.00 0.00 81 1012.1
20260502161618 13 0 0.0 4.8 0.00 0.00 0.00 81 1012.3
20260502161038 13 0 1.6 4.8 0.00 0.00 0.00 79 1012.2
20260502160535 13 111 0.0 3.2 0.00 0.00 0.00 81 1012.3
20260502152037 14 219 1.6 4.8 0.00 0.00 0.00 82 1012.6
20260502151555 13 235 1.6 4.8 0.00 0.00 0.00 84 1012.5
20260502151038 12 0 0.0 3.2 0.00 0.00 0.00 81 1012.5
20260502150535 13 235 0.0 3.2 0.00 0.00 0.00 80 1012.5
20260502130537 12 0 0.0 3.2 0.00 0.00 0.00 83 1012.9
20260502123535 11 0 1.6 6.4 0.00 0.00 0.00 84 1013.0
20260502123110 11 20 1.6 6.4 0.00 0.00 0.00 83 1012.9
20260502122537 11 0 0.0 6.4 0.00 0.00 0.00 84 1012.9
20260502122043 11 6 1.6 6.4 0.00 0.00 0.00 84 1012.8
20260502121556 11 3 0.0 4.8 0.00 0.00 0.00 85 1012.9
20260502121040 11 0 0.0 3.2 0.00 0.00 0.00 86 1013.0
20260502120540 11 0 0.0 3.2 0.00 0.00 0.00 87 1012.9
20260502120108 11 0 0.0 1.6 0.00 0.00 0.00 87 1012.8
20260502115539 10 0 0.0 1.6 0.00 0.00 0.00 89 1012.7
20260502115043 10 0 0.0 1.6 0.00 0.00 0.00 88 1012.7
20260502114548 10 0 0.0 1.6 0.00 0.00 0.00 89 1012.7
20260502114042 9 0 0.0 1.6 0.00 0.00 0.00 90 1012.7
20260502113538 9 0 0.0 0.0 0.00 0.00 0.00 90 1012.7
20260502113051 9 0 0.0 0.0 0.00 0.00 0.00 91 1012.6
20260502112538 9 0 0.0 3.2 0.00 0.00 0.00 92 1012.6
20260502112039 8 0 0.0 3.2 0.00 0.00 0.00 92 1012.6
20260502111548 8 0 0.0 3.2 0.00 0.00 0.00 93 1012.5
20260502111039 8 0 0.0 0.0 0.00 0.00 0.00 93 1012.5
20260502110539 7 0 0.0 0.0 0.00 0.00 0.00 93 1012.5
20260502110054 7 0 0.0 0.0 0.00 0.00 0.00 93 1012.7
20260502105539 7 0 0.0 0.0 0.00 0.00 0.00 93 1012.6
20260502105038 7 0 0.0 1.6 0.00 0.00 0.00 93 1012.6
20260502104552 7 0 0.0 1.6 0.00 0.00 0.00 93 1012.5
20260502104039 7 0 0.0 3.2 0.00 0.00 0.00 93 1012.3
20260502103535 6 0 0.0 3.2 0.00 0.00 0.00 93 1012.2
20260502103046 6 0 0.0 3.2 0.00 0.00 0.00 93 1012.2
20260502102538 6 0 0.0 3.2 0.00 0.00 0.00 93 1012.1
20260502102040 6 0 0.0 3.2 0.00 0.00 0.00 93 1012.1
20260502101547 6 201 0.0 3.2 0.00 0.00 0.00 93 1012.3
20260502101039 5 201 0.0 3.2 0.00 0.00 0.00 93 1012.2
20260502100539 5 0 0.0 3.2 0.00 0.00 0.00 93 1012.1
20260502091039 4 0 0.0 0.0 0.00 0.00 0.00 91 1012.3
20260502090539 4 0 0.0 3.2 0.00 0.00 0.00 91 1012.4
20260502071037 5 0 0.0 3.2 0.00 0.00 0.00 89 1012.0
20260502070538 5 201 1.6 3.2 0.00 0.00 0.00 89 1011.9
20260502070107 5 0 0.0 3.2 0.00 0.00 0.00 89 1012.0
20260502065538 5 201 0.0 3.2 0.00 0.00 0.00 89 1012.1
20260502065037 6 0 0.0 3.2 0.00 0.00 0.00 89 1012.0
20260502064553 6 201 0.0 3.2 0.00 0.00 0.00 89 1012.1
20260502064037 6 0 0.0 1.6 0.00 0.00 0.00 89 1012.1
20260502063539 6 0 0.0 3.2 0.00 0.00 0.00 88 1012.1
20260502063053 6 0 0.0 3.2 0.00 0.00 0.00 88 1012.2
20260502062538 6 201 0.0 3.2 0.00 0.00 0.00 88 1012.2
20260502062038 6 0 0.0 0.0 0.00 0.00 0.00 88 1012.2
20260502061547 6 0 0.0 1.6 0.00 0.00 0.00 88 1012.4
20260502061037 6 0 0.0 1.6 0.00 0.00 0.00 88 1012.2
20260502060539 6 0 0.0 0.0 0.00 0.00 0.00 87 1012.2
20260502060054 6 0 0.0 3.2 0.00 0.00 0.00 87 1012.3
20260502055538 6 0 0.0 3.2 0.00 0.00 0.00 87 1012.3
20260502055038 6 0 0.0 1.6 0.00 0.00 0.00 87 1012.3
20260502054548 6 0 0.0 3.2 0.00 0.00 0.00 87 1012.3
20260502054037 6 0 0.0 3.2 0.00 0.00 0.00 87 1012.5
20260502053537 6 0 0.0 3.2 0.00 0.00 0.00 87 1012.5
20260502053053 6 201 0.0 3.2 0.00 0.00 0.00 87 1012.6
20260502052537 6 0 0.0 3.2 0.00 0.00 0.00 87 1012.5
20260502052042 6 0 0.0 1.6 0.00 0.00 0.00 87 1012.6
20260502051602 6 0 0.0 1.6 0.00 0.00 0.00 87 1012.5
20260502051039 6 0 0.0 1.6 0.00 0.00 0.00 86 1012.6
20260502050539 6 0 0.0 1.6 0.00 0.00 0.00 86 1012.6
20260502050056 6 0 0.0 0.0 0.00 0.00 0.00 86 1012.4
20260502045541 6 0 0.0 3.2 0.00 0.00 0.00 86 1012.5
20260502045036 6 0 0.0 3.2 0.00 0.00 0.00 86 1012.5
20260502044607 6 0 0.0 3.2 0.00 0.00 0.00 86 1012.5
20260502044037 6 0 0.0 3.2 0.00 0.00 0.00 86 1012.5
20260502043541 7 0 0.0 0.0 0.00 0.00 0.00 86 1012.6
20260502043053 7 0 0.0 0.0 0.00 0.00 0.00 86 1012.6
20260502042538 7 0 0.0 0.0 0.00 0.00 0.00 86 1012.5
20260502042040 7 0 0.0 0.0 0.00 0.00 0.00 86 1012.5
20260502041552 7 0 0.0 0.0 0.00 0.00 0.00 86 1012.6
20260502041037 7 0 0.0 0.0 0.00 0.00 0.00 85 1012.6
20260502040537 7 0 0.0 0.0 0.00 0.00 0.00 85 1012.5
20260502035536 7 0 0.0 0.0 0.00 0.00 0.00 85 1012.7
20260502035036 7 0 0.0 1.6 0.00 0.00 0.00 85 1012.6
20260502034548 7 0 0.0 1.6 0.00 0.00 0.00 85 1012.6
20260502034039 7 0 0.0 1.6 0.00 0.00 0.00 84 1012.6
20260502033537 7 0 0.0 1.6 0.00 0.00 0.00 84 1012.6
20260502033051 7 0 0.0 3.2 0.00 0.00 0.00 85 1012.6
20260502032537 7 0 0.0 3.2 0.00 0.00 0.00 85 1012.6
20260502032038 7 0 0.0 0.0 0.00 0.00 0.00 86 1012.5
20260502031549 7 0 0.0 0.0 0.00 0.00 0.00 85 1012.4
20260502031041 7 0 0.0 1.6 0.00 0.00 0.00 86 1012.5
20260502030537 7 0 0.0 3.2 0.00 0.00 0.00 85 1012.4
20260502030051 7 0 0.0 3.2 0.00 0.00 0.00 85 1012.5
20260502025537 7 0 0.0 1.6 0.00 0.00 0.00 85 1012.3
20260502025038 7 0 0.0 3.2 0.00 0.00 0.00 84 1012.2
20260502024547 7 0 0.0 3.2 0.00 0.00 0.00 84 1012.1
20260502024040 7 0 0.0 6.4 0.00 0.00 0.00 84 1012.0
20260502023539 7 197 0.0 6.4 0.00 0.00 0.00 84 1012.0
20260502023048 7 0 0.0 0.0 0.00 0.00 0.00 84 1012.0
20260502022537 7 0 0.0 3.2 0.00 0.00 0.00 84 1012.0
20260502022039 7 0 0.0 3.2 0.00 0.00 0.00 84 1012.0
20260502021549 7 0 0.0 0.0 0.00 0.00 0.00 84 1012.1
20260502021039 7 0 0.0 0.0 0.00 0.00 0.00 84 1012.1
20260502020539 7 0 0.0 1.6 0.00 0.00 0.00 84 1012.1
20260502020049 7 0 0.0 3.2 0.00 0.00 0.00 84 1012.2
20260502015536 7 0 0.0 3.2 0.00 0.00 0.00 84 1012.3
20260502015038 7 0 0.0 3.2 0.00 0.00 0.00 84 1012.3
20260502014549 7 0 0.0 3.2 0.00 0.00 0.00 84 1012.2
20260502014040 7 0 0.0 1.6 0.00 0.00 0.00 84 1012.1
20260502013537 7 0 0.0 1.6 0.00 0.00 0.00 84 1012.1
20260502013048 7 0 0.0 1.6 0.00 0.00 0.00 84 1012.1
20260502012536 7 0 0.0 1.6 0.00 0.00 0.00 85 1012.0
20260502012039 7 0 0.0 1.6 0.00 0.00 0.00 84 1012.1
20260502011548 7 0 0.0 1.6 0.00 0.00 0.00 84 1012.0
20260502011036 7 0 0.0 1.6 0.00 0.00 0.00 84 1011.9
20260502010540 7 0 0.0 1.6 0.00 0.00 0.00 84 1011.9
20260502010054 7 0 0.0 1.6 0.00 0.00 0.00 84 1011.8
20260502005540 7 0 0.0 0.0 0.00 0.00 0.00 84 1011.8
20260502005043 7 0 0.0 0.0 0.00 0.00 0.00 84 1011.7
20260502004602 7 0 0.0 1.6 0.00 0.00 0.00 84 1011.5
20260502004042 8 0 0.0 3.2 0.00 0.00 0.00 84 1011.4
20260502003537 8 0 0.0 3.2 0.00 0.00 0.00 84 1011.3
20260502003050 8 0 0.0 3.2 0.00 0.00 0.00 83 1011.3
20260502002538 8 0 0.0 3.2 0.00 0.00 0.00 83 1011.4
20260502002036 8 0 0.0 3.2 0.00 0.00 0.00 82 1011.3
20260502001557 8 0 0.0 0.0 0.00 0.00 0.00 82 1011.1
20260502001037 8 0 0.0 0.0 0.00 0.00 0.00 81 1011.1
20260502000538 8 0 0.0 0.0 0.00 0.00 0.00 81 1011.0
20260502000058 9 0 0.0 0.0 0.00 0.00 0.00 80 1010.9
20260501235538 9 0 0.0 0.0 0.00 0.00 0.00 80 1010.8
20260501235043 9 0 0.0 0.0 0.00 0.00 0.00 79 1010.8
20260501234603 9 0 0.0 1.6 0.00 0.00 0.00 79 1010.7
20260501234039 10 0 0.0 1.6 0.00 0.00 0.00 78 1010.7
20260501233539 10 0 0.0 1.6 0.00 0.00 0.00 78 1010.7
20260501233050 10 0 0.0 1.6 0.00 0.00 0.00 78 1010.6
20260501232542 10 0 0.0 1.6 0.00 0.00 0.00 77 1010.4
20260501232038 10 0 0.0 1.6 0.00 0.00 0.00 77 1010.4
20260501231555 10 0 0.0 0.0 0.00 0.00 0.00 75 1010.2
20260501231039 11 0 0.0 0.0 0.00 0.00 0.00 75 1010.2
20260501230541 11 0 0.0 0.0 0.00 0.00 0.00 74 1010.1
20260501230056 11 0 0.0 3.2 0.00 0.00 0.00 74 1010.1
20260501225540 11 0 0.0 3.2 0.00 0.00 0.00 73 1010.2
20260501225039 11 358 0.0 3.2 0.00 0.00 0.00 71 1010.0
20260501224548 12 0 0.0 3.2 0.00 0.00 0.00 72 1010.0
20260501224040 12 358 0.0 3.2 0.00 0.00 0.00 72 1009.9
20260501223540 12 358 0.0 3.2 0.00 0.00 0.00 72 1009.9
20260501223048 12 0 0.0 3.2 0.00 0.00 0.00 70 1009.8
20260501222542 12 358 0.0 6.4 0.00 0.00 0.00 69 1009.8
20260501222040 13 358 1.6 6.4 0.00 0.00 0.00 67 1009.7
20260501221553 13 0 0.0 4.8 0.00 0.00 0.00 66 1009.7
20260501221039 13 9 1.6 4.8 0.00 0.00 0.00 65 1009.8
20260501220539 13 0 0.0 3.2 0.00 0.00 0.00 65 1009.7
20260501215539 13 15 1.6 4.8 0.00 0.00 0.00 63 1009.7
20260501215039 13 0 0.0 4.8 0.00 0.00 0.00 63 1009.7
20260501214554 13 347 0.0 3.2 0.00 0.00 0.00 63 1009.7
20260501214039 13 0 1.6 3.2 0.00 0.00 0.00 64 1009.7
20260501213538 13 0 0.0 4.8 0.00 0.00 0.00 62 1009.6
20260501213058 13 344 1.6 4.8 0.00 0.00 0.00 63 1009.7
20260501212543 14 0 0.0 4.8 0.00 0.00 0.00 62 1009.6
20260501212042 14 0 0.0 4.8 0.00 0.00 0.00 62 1009.6
20260501211548 14 313 1.6 8.0 0.00 0.00 0.00 62 1009.5
20260501211039 14 0 1.6 8.0 0.00 0.00 0.00 63 1009.4
20260501210539 14 22 1.6 4.8 0.00 0.00 0.00 64 1009.4
20260501210048 14 27 1.6 4.8 0.00 0.00 0.00 62 1009.4
20260501205536 14 3 1.6 4.8 0.00 0.00 0.00 63 1009.4
20260501205038 14 337 0.0 4.8 0.00 0.00 0.00 63 1009.4
20260501204551 14 337 1.6 4.8 0.00 0.00 0.00 63 1009.5
20260501204036 14 0 0.0 3.2 0.00 0.00 0.00 63 1009.5
20260501203538 14 18 1.6 3.2 0.00 0.00 0.00 62 1009.5
20260501203054 15 21 1.6 3.2 0.00 0.00 0.00 64 1009.5
20260501202536 15 18 0.0 8.0 0.00 0.00 0.00 63 1009.4
20260501202040 15 0 1.6 8.0 0.00 0.00 0.00 63 1009.6
20260501201558 15 353 1.6 4.8 0.00 0.00 0.00 63 1009.6
20260501201036 15 349 1.6 8.0 0.00 0.00 0.00 61 1009.5
20260501200535 15 14 1.6 8.0 0.00 0.00 0.00 61 1009.3
20260501200055 15 23 1.6 4.8 0.00 0.00 0.00 59 1009.4
20260501195540 15 28 0.0 4.8 0.00 0.00 0.00 61 1009.3
20260501195040 15 22 1.6 4.8 0.00 0.00 0.00 60 1009.5
20260501194609 15 31 0.0 4.8 0.00 0.00 0.00 60 1009.5
20260501194039 16 18 1.6 4.8 0.00 0.00 0.00 59 1009.4
20260501193539 16 16 0.0 4.8 0.00 0.00 0.00 58 1009.5
20260501193047 16 16 0.0 4.8 0.00 0.00 0.00 59 1009.6
20260501192539 17 24 0.0 3.2 0.00 0.00 0.00 58 1009.7
20260501192036 17 341 1.6 3.2 0.00 0.00 0.00 58 1009.8
20260501191555 17 340 0.0 4.8 0.00 0.00 0.00 61 1009.7
20260501191036 17 15 1.6 4.8 0.00 0.00 0.00 57 1009.8
20260501190536 17 18 1.6 4.8 0.00 0.00 0.00 59 1009.8
20260501190054 17 21 1.6 4.8 0.00 0.00 0.00 61 1009.7
20260501185535 16 20 0.0 4.8 0.00 0.00 0.00 64 1009.6
20260501185036 16 0 1.6 6.4 0.00 0.00 0.00 64 1009.7
20260501184554 16 344 1.6 6.4 0.00 0.00 0.00 57 1009.7
20260501184038 16 14 1.6 6.4 0.00 0.00 0.00 54 1009.7
20260501183538 17 353 1.6 4.8 0.00 0.00 0.00 54 1009.8
20260501183047 17 357 1.6 6.4 0.00 0.00 0.00 51 1009.8
20260501182539 16 357 1.6 6.4 0.00 0.00 0.00 50 1009.7
20260501182036 16 340 0.0 4.8 0.00 0.00 0.00 54 1009.7
20260501181613 16 340 1.6 4.8 0.00 0.00 0.00 51 1009.7
20260501181037 16 0 1.6 4.8 0.00 0.00 0.00 55 1009.7
20260501180539 16 2 1.6 8.0 0.00 0.00 0.00 52 1009.9
20260501180049 16 29 1.6 8.0 0.00 0.00 0.00 54 1009.9
20260501175536 16 9 3.2 8.0 0.00 0.00 0.00 54 1010.0
20260501175035 16 2 1.6 4.8 0.00 0.00 0.00 55 1009.8